{"data":{"norad_id":59460,"intl_designator":"2024-068F","name":"STARLINK-31620","alt_names":[],"object_type":"PAYLOAD","status":"ACTIVE","operator":null,"country":"US","launch_date":"2024-04-10","launch_site_code":"AFETR","launch_vehicle":null,"mission":null,"orbit_class":"UNKNOWN","rcs_meters":null,"size_class":null,"mass_kg":null,"dimensions":null,"purposes":["comms"],"wikipedia_slug":null,"has_3d_model":false,"image_url":null,"decayed_at":null,"tle_current":{"epoch":"2026-05-25T04:44:41.538336Z","epoch_age_seconds":51848,"freshness":"FRESH","line1":"1 59460U 24068F   26145.19770299  .00000253  00000+0  18718-4 0  9994","line2":"2 59460  43.0027 318.9832 0000733 285.6597  74.4174 15.27577597120264","mean_motion":15.27577597,"eccentricity":7.33e-5,"inclination_deg":43.0027,"raan_deg":318.9832,"arg_perigee_deg":285.6597,"mean_anomaly_deg":74.4174,"bstar":1.8718e-5,"rev_number":12026,"period_min":94.26689700268,"perigee_km":482.55336602729,"apogee_km":483.55921696383,"semimajor_km":6861.1932914956,"source":"CELESTRAK","updated_at":"2026-05-25T13:38:18.948810Z"}}}